Weather Roundup
Issued by NWS Corpus Christi, TX

Home | Current Version | Previous Version | Text Only | Print | Product List | Glossary On
Versions: 1 2 3 4 5 6 7 8 9 10 11 12 13 14 15 16 17 18 19 20 21 22 23 24 25 26 27 28 29 30 31 32 33 34 35 36 37 38 39 40 41 42 43 44 45 46 47 48 49 50
000
ASUS44 KCRP 221610
HRRCRP

SOUTH TEXAS REGIONAL WEATHER ROUNDUP
NATIONAL WEATHER SERVICE CORPUS CHRISTI TX
1100 AM CDT FRI MAY 22 2015


TXZ229>244-221700-
...CORPUS CHRISTI AREA OBSERVATIONS...

CITY           SKY/WX    TMP DP  RH WIND       PRES   REMARKS
CORPUS CHRISTI PTSUNNY   84  75  74 SE15      30.03S HX  92
NAS CORPUS CHR PTSUNNY   82  77  84 SE12      30.03F HX  90
ROCKPORT       NOT AVBL
KINGSVILLE NAS PTSUNNY   84  79  85 SE9       30.03S HX  96
ALICE          PTSUNNY   86  75  69 SE12G17   30.03S HX  95
FALFURRIAS     PTSUNNY   84  74  72 SE7       30.01F HX  91
$$

...VICTORIA AREA OBSERVATIONS...

CITY           SKY/WX    TMP DP  RH WIND       PRES   REMARKS
VICTORIA       LGT RAIN  76  73  91 E9        30.09S FOG
BEEVILLE       FAIR      80  77  91 E8        30.06S
PLEASANTON     CLOUDY    74  69  84 E8        30.08S
SAN ANTONIO    CLOUDY    72  68  87 E12       30.08F FOG
$$

...LAREDO AREA OBSERVATIONS...

CITY           SKY/WX    TMP DP  RH WIND       PRES   REMARKS
LAREDO         PTSUNNY   80  71  74 SE8       30.05F
COTULLA        CLOUDY    73  69  87 E12       30.05S
DEL RIO        CLOUDY    72  68  87 SE10      30.03S
MCALLEN        PTSUNNY   86  75  69 SE8       30.02R HX  95
HEBBRONVILLE     N/A     82  71  69 SE12      30.05S
$$

...OTHER TEXAS OBSERVATIONS...

CITY           SKY/WX    TMP DP  RH WIND       PRES   REMARKS
BROWNSVILLE    PTSUNNY   87  73  62 SE15      30.00S HX  94
HOUSTON        CLOUDY    68  62  81 NE10      30.15R
COL. STATION   CLOUDY    68  64  87 E10       30.13S
AUSTIN         CLOUDY    69  69 100 E6        30.10F FOG
WACO           CLOUDY    65  61  87 E8        30.14S
FORT WORTH     CLOUDY    60  53  77 SE14      30.15S
WICHITA FALLS  CLOUDY    60  58  92 E14       30.14F
LUBBOCK        CLOUDY    56  54  93 SE8       30.14S
EL PASO        MOSUNNY   65  54  67 CALM      30.07F
$$

...MARINE OBSERVATIONS...

STATION/POSITION TIME  SKY/WX   TEMP    WIND        PRES    VSBY  WAVE   SWELL
                                AIR SEA DIR/SP/G                  HT/PER HT/PER
                 (UTC)          (F)     (DEG/KT/KT) (MB)    (MI)  (FT/S) (FT/S)
PORT ARANSAS     1600            80 80  110/ 13/ 14 1017.6F
BUOY 90 E PORT A 1550            80 80  100/ 12/ 14 1018.5R         3/ 5   2/ 6
BUOY 45 SE BAFFI 1550            80 80  110/  8/  8 1016.8R         3/ 6   3/ 6
BUOY 200 E PT IS 1550            81 81  120/ 12/ 12 1017.9R         2/ 5   2/ 5
BUOY 15 E GALVES 1550            73 80   70/ 14/ 17 1019.4R         3/ 5
$$


USA.gov is the U.S. government's official web portal to all federal, state and local government web resources and services.